Flag for India Weather past 2 weeks in Jalandhar, Punjab, India

Now
73 °F

Fog.


Feels Like: 68 °F
Forecast: 73 / 97 °F
Wind: 2 mph from North

Location: Amritsar Airport

Current Time: Sep 21, 2014 at 1:53:45 AM

Latest Report: Sep 21, 2014 at 1:00 AM


Visibility: 2 mi

Pressure: 29.68 "Hg

Humidity: 100%

Dew point: 73 °F

Location of JalandharLocation

Historic Weather in Jalandhar — Graph

°F

Jalandhar temperature yesterday

Maximum temperature yesterday: 93 °F (at 12:30 PM)
Minimum temperature yesterday: 75 °F (at 11:00 PM)
Average temperature yesterday: 85 °F

Past Weeks' High & Low Weather Summary

 TemperatureHumidityPressure
High95 °F (Sep 18, 3:00 PM)100% (Sep 6, 12:30 AM)29.80 "Hg (Sep 6, 12:30 AM)
Low72 °F (Sep 17, 6:00 AM)49% (Sep 15, 3:30 PM)29.47 "Hg (Sep 6, 12:30 AM)
Average82 °F84%29.68 "Hg
* Reported Sep 6 12:30 AM — Sep 21 12:30 AM, Jalandhar, Weather by CustomWeather, © 2014

Note: Actual official high and low records may vary slightly from our data, if they occured in-between our weather recording intervals... More about our weather records

Advertising

Jalandhar weather history for previous 24 hours

 ConditionsComfort  
Time TempWeatherWind HumidityBarometerVisibility
12:30 AM
Sep 21
73 °FFog.No wind100%29.68 "Hg1 mi
11:30 PM
Sep 20
75 °FFog.6 mph94%29.65 "Hg2 mi
11:00 PM75 °FFog.No wind94%29.65 "Hg2 mi
6:30 PM82 °FPartly sunny.17 mph66%29.65 "Hg2 mi
6:00 PM90 °FScattered clouds.1 mph71%29.62 "Hg2 mi
5:30 PM91 °FScattered clouds.No wind67%29.59 "Hg2 mi
5:00 PM91 °FScattered clouds.3 mph67%29.59 "Hg2 mi
4:30 PM91 °FScattered clouds.6 mph67%29.59 "Hg2 mi
3:30 PM91 °FScattered clouds.6 mph67%29.59 "Hg2 mi
3:00 PM91 °FScattered clouds.2 mph67%29.62 "Hg2 mi
2:30 PM91 °FScattered clouds.3 mph67%29.62 "Hg2 mi
2:00 PM91 °FScattered clouds.3 mph63%29.65 "Hg2 mi
1:30 PM91 °FScattered clouds.3 mph67%29.65 "Hg2 mi
1:00 PM93 °FScattered clouds.1 mph59%29.68 "Hg2 mi
12:30 PM93 °FScattered clouds.No wind59%29.68 "Hg2 mi
12:00 PM91 °FScattered clouds.2 mph63%29.68 "Hg2 mi
11:30 AM91 °FScattered clouds.2 mph63%29.71 "Hg2 mi
10:30 AM90 °FScattered clouds.2 mph67%29.71 "Hg2 mi
10:00 AM88 °FScattered clouds.1 mph79%29.71 "Hg2 mi
9:30 AM86 °FFog.1 mph84%29.71 "Hg2 mi
9:00 AM86 °FFog.No wind84%29.68 "Hg1 mi
8:30 AM86 °FFog.No wind84%29.68 "Hg1 mi
8:00 AM82 °FFog.No wind94%29.68 "Hg1 mi
7:30 AM81 °FFog.No wind100%29.68 "Hg1 mi
6:30 AM81 °FFog.No wind100%29.65 "Hg1 mi
6:00 AM81 °FFog.No wind100%29.65 "Hg1 mi
5:30 AM81 °FFog.No wind100%29.65 "Hg1 mi
5:00 AM81 °FFog.No wind100%29.65 "Hg1 mi
4:30 AM81 °FFog.No wind100%29.62 "Hg1 mi
4:00 AM81 °FFog.No wind100%29.62 "Hg1 mi
3:30 AM81 °FFog.No wind100%29.62 "Hg1 mi
2:30 AM81 °FFog.No wind100%29.65 "Hg1 mi
2:00 AM81 °FFog.No wind100%29.65 "Hg1 mi
1:30 AM81 °FFog.No wind100%29.65 "Hg1 mi
1:00 AM81 °FFog.No wind100%29.65 "Hg1 mi
Weather by CustomWeather, © 2014

See weather overviewHow to use our weather pages